TimeCDT,TemperatureF,Dew PointF,Humidity,Sea Level PressureIn,VisibilityMPH,Wind Direction,Wind SpeedMPH,Gust SpeedMPH,PrecipitationIn,Events,Conditions,WindDirDegrees,DateUTC
12:55 AM,80.6,77.0,89,30.01,10.0,Calm,Calm,-,N/A,,Partly Cloudy,0,2013-08-10 05:55:00
1:55 AM,78.8,75.2,89,30.01,10.0,SSE,3.5,-,N/A,,Partly Cloudy,150,2013-08-10 06:55:00
2:55 AM,78.8,75.2,89,30.02,10.0,Calm,Calm,-,N/A,,Clear,0,2013-08-10 07:55:00
3:15 AM,78.8,75.2,89,30.01,10.0,Calm,Calm,-,N/A,,Clear,0,2013-08-10 08:15:00
3:35 AM,78.8,75.2,89,30.01,10.0,Calm,Calm,-,N/A,,Clear,0,2013-08-10 08:35:00
3:55 AM,77.0,75.2,94,30.01,10.0,Calm,Calm,-,N/A,,Clear,0,2013-08-10 08:55:00
4:15 AM,77.0,75.2,94,30.02,10.0,Calm,Calm,-,N/A,,Clear,0,2013-08-10 09:15:00
4:35 AM,77.0,75.2,94,30.02,10.0,Calm,Calm,-,N/A,,Clear,0,2013-08-10 09:35:00
4:55 AM,78.8,75.2,89,30.02,10.0,Calm,Calm,-,N/A,,Clear,0,2013-08-10 09:55:00
5:15 AM,75.2,75.2,100,30.03,10.0,Calm,Calm,-,N/A,,Clear,0,2013-08-10 10:15:00
5:35 AM,75.2,75.2,100,30.04,10.0,Calm,Calm,-,N/A,,Partly Cloudy,0,2013-08-10 10:35:00
5:55 AM,75.2,73.4,94,30.03,10.0,Calm,Calm,-,N/A,,Partly Cloudy,0,2013-08-10 10:55:00
6:55 AM,75.2,75.2,100,30.06,10.0,Calm,Calm,-,N/A,,Partly Cloudy,0,2013-08-10 11:55:00
7:55 AM,82.4,75.2,79,30.08,10.0,Calm,Calm,-,N/A,,Scattered Clouds,0,2013-08-10 12:55:00
8:55 AM,78.8,73.4,83,30.11,10.0,North,10.4,-,N/A,,Overcast,360,2013-08-10 13:55:00
9:55 AM,80.6,71.6,74,30.11,10.0,NNE,4.6,-,N/A,,Overcast,20,2013-08-10 14:55:00
10:55 AM,80.6,73.4,79,30.13,10.0,North,6.9,-,N/A,,Overcast,360,2013-08-10 15:55:00
11:55 AM,82.4,73.4,74,30.14,10.0,NW,5.8,-,N/A,,Overcast,320,2013-08-10 16:55:00
12:55 PM,77.0,73.4,89,30.14,7.0,WSW,3.5,-,N/A,Rain,Rain,240,2013-08-10 17:55:00
1:55 PM,77.0,73.4,89,30.09,10.0,Calm,Calm,-,N/A,,Clear,0,2013-08-10 18:55:00
2:55 PM,84.2,73.4,70,30.05,10.0,Calm,Calm,-,N/A,,Mostly Cloudy,0,2013-08-10 19:55:00
3:55 PM,87.8,75.2,66,30.03,10.0,Calm,Calm,-,N/A,,Scattered Clouds,0,2013-08-10 20:55:00
4:55 PM,89.6,75.2,62,30.03,10.0,Calm,Calm,-,N/A,,Scattered Clouds,0,2013-08-10 21:55:00
5:55 PM,87.8,75.2,66,30.05,10.0,North,3.5,-,N/A,,Scattered Clouds,360,2013-08-10 22:55:00
6:55 PM,82.4,77.0,84,30.05,10.0,North,8.1,-,N/A,,Scattered Clouds,10,2013-08-10 23:55:00
7:55 PM,78.8,75.2,89,30.06,10.0,North,5.8,-,N/A,,Clear,10,2013-08-11 00:55:00
8:55 PM,78.8,75.2,89,30.07,10.0,NNE,3.5,-,N/A,,Clear,20,2013-08-11 01:55:00
9:55 PM,77.0,75.2,94,30.09,10.0,Calm,Calm,-,N/A,,Partly Cloudy,0,2013-08-11 02:55:00
10:55 PM,75.2,75.2,100,30.10,10.0,Calm,Calm,-,N/A,,Scattered Clouds,0,2013-08-11 03:55:00
11:55 PM,75.2,75.2,100,30.09,10.0,Calm,Calm,-,N/A,,Clear,0,2013-08-11 04:55:00